Location: Newark
(41.6500°N, 71.4833°W)
Time: 01:53:48
(UTC+00:00)

Courier 1B - Pass Details

Date: 28 January 2020
Orbit: 962 x 1209 km, 28.3° (Epoch: 25 February)

Event Time Altitude Azimuth Distance (km) Brightness Sun altitude
Rises 07:54:43 0° 244° (WSW) 3,812 - -46.0°
Reaches altitude 10° 07:57:46 10° 233° (SW) 2,899 - -45.4°
Maximum altitude 08:03:40 28° 177° (S) 1,944 - -44.4°
Exits shadow 08:07:51 17° 132° (SE) 2,528 9.8 -43.6°
Drops below altitude 10° 08:09:51 10° 121° (ESE) 3,050 10.4 -43.3°
Sets 08:13:09 0° 111° (ESE) 4,045 11.3 -42.7°
